logo tempoitalia

Diretta Meteo San Carlos, Stati Uniti (USA)domenica 30 agosto ore 23:35

Mappa
Sereno 16 °C Sereno 24 Ore: T.min 14 T.max 23
Ponente Nord Km/h 0 Punto di rugiada: 12 °C Umidità: 77% Visibilità: 10 Km
Il sole sorge alle: 06:37 Il sole tramonta alle: 19:41
30 Agosto 2026 23:35 tempo osservato: Sereno Sereno 16 77 1013 vento: Nord N 0
30 Agosto 2026 23:15 tempo osservato: Sereno Sereno 16 77 1013 vento: Nord O 7.4
30 Agosto 2026 22:55 tempo osservato: Sereno Sereno 16 77 1013 vento: Nord N 5.5
30 Agosto 2026 22:35 tempo osservato: Sereno Sereno 15 82 1012 vento: Nord N 0
30 Agosto 2026 22:15 tempo osservato: Sereno Sereno 16 77 1012 vento: Nord NO 7.4
30 Agosto 2026 21:55 tempo osservato: Sereno Sereno 16 77 1013 vento: Nord NO 11.1
30 Agosto 2026 21:35 tempo osservato: Sereno Sereno 16 77 1012 vento: Nord NO 9.3
30 Agosto 2026 21:15 tempo osservato: Sereno Sereno 16 77 1012 vento: Nord NO 11.1
30 Agosto 2026 20:45 tempo osservato: Sereno Sereno 16 72 1012 vento: Nord O/NO 11.1
30 Agosto 2026 18:53 tempo osservato: Sereno Sereno 19 63 1011 vento: Nord O/NO 18.5
30 Agosto 2026 15:45 tempo osservato: Sereno Sereno 23 53 1012 vento: Nord N 0
30 Agosto 2026 13:47 tempo osservato: Sereno Sereno 22 53 1014 vento: Nord NO 20.3
30 Agosto 2026 12:47 tempo osservato: Sereno Sereno 21 56 1014 vento: Nord O/NO 24
30 Agosto 2026 11:47 tempo osservato: Sereno Sereno 19 63 1015 vento: Nord O/NO 22.2
30 Agosto 2026 10:47 tempo osservato: Poco Nuvoloso Poco Nuvoloso 20 59 1015 vento: Nord O 11.1
30 Agosto 2026 09:47 tempo osservato: Poco Nuvoloso Poco Nuvoloso 18 67 1015 vento: Nord N 7.4
30 Agosto 2026 08:47 tempo osservato: Poco Nuvoloso Poco Nuvoloso 17 72 1015 vento: Nord N 7.4
30 Agosto 2026 07:50 tempo osservato: Poco Nuvoloso Poco Nuvoloso 16 72 1015 vento: Nord N 0
30 Agosto 2026 06:55 tempo osservato: Sereno Sereno 15 76 1014 vento: Nord O/SO 9.3
30 Agosto 2026 06:50 tempo osservato: Poco Nuvoloso Poco Nuvoloso 14 82 1014 vento: Nord N 5.5
30 Agosto 2026 06:35 tempo osservato: Sereno Sereno 16 77 1014 vento: Nord O 9.3
30 Agosto 2026 06:15 tempo osservato: Sereno Sereno 15 82 1014 vento: Nord O 14.8
30 Agosto 2026 05:55 tempo osservato: Sereno Sereno 15 82 1014 vento: Nord O/SO 7.4
30 Agosto 2026 05:35 tempo osservato: Sereno Sereno 15 82 1014 vento: Nord O 9.3
30 Agosto 2026 05:15 tempo osservato: Sereno Sereno 16 77 1014 vento: Nord N 0
30 Agosto 2026 04:55 tempo osservato: Sereno Sereno 16 77 1014 vento: Nord O 11.1
30 Agosto 2026 04:35 tempo osservato: Sereno Sereno 16 77 1014 vento: Nord SO 13
30 Agosto 2026 04:15 tempo osservato: Sereno Sereno 16 77 1014 vento: Nord N 5.5
30 Agosto 2026 03:55 tempo osservato: Sereno Sereno 15 82 1014 vento: Nord N 5.5
30 Agosto 2026 03:35 tempo osservato: Sereno Sereno 15 82 1014 vento: Nord N 0
30 Agosto 2026 03:15 tempo osservato: Sereno Sereno 16 77 1014 vento: Nord SO 9.3
30 Agosto 2026 02:55 tempo osservato: Sereno Sereno 16 77 1014 vento: Nord O 14.8
30 Agosto 2026 02:35 tempo osservato: Sereno Sereno 16 77 1014 vento: Nord N 11.1
30 Agosto 2026 02:15 tempo osservato: Sereno Sereno 16 77 1014 vento: Nord O/SO 9.3
30 Agosto 2026 01:55 tempo osservato: Sereno Sereno 16 77 1014 vento: Nord O 14.8
30 Agosto 2026 01:35 tempo osservato: Sereno Sereno 16 77 1014 vento: Nord O 16.7
30 Agosto 2026 01:15 tempo osservato: Sereno Sereno 16 77 1014 vento: Nord O/SO 14.8
30 Agosto 2026 00:55 tempo osservato: Sereno Sereno 16 77 1014 vento: Nord O/SO 11.1
30 Agosto 2026 00:35 tempo osservato: Sereno Sereno 17 72 1014 vento: Nord N 5.5
30 Agosto 2026 00:15 tempo osservato: Sereno Sereno 17 72 1014 vento: Nord O 18.5
29 Agosto 2026 23:55 tempo osservato: Sereno Sereno 17 72 1014 vento: Nord O/NO 16.7
29 Agosto 2026 23:35 tempo osservato: Sereno Sereno 17 72 1014 vento: Nord O/NO 16.7